Погода в Бердюгине

Россия / Тюменская область     56°48′28″N   66°24′44″E
темп.,
°C
ветер,
м/с
пор.,
м/с
влажн.,
%
обл.,
%
осадки,
мм/ч
давл.,
гПа
погр.,
м
8 марта, пн
пн823:00−10с51095100 3.1 1001394
02:00−11сз51093100 0.4 1003351
05:00−16зсз479792 0.4 1006120
08:00−19з349852 0.0 100768
11:00−14зюз469363 0.0 1009282
14:00−11юз588885 0.0 1010528
17:00−11ююз488893 0.0 1009526
20:00−11ю51292100 0.1 1008620
9 марта, вт
вт923:00−10ююз51293100 0.3 1007524
02:00−7ююз71492100 0.1 1005607
05:00−8ююз6138999 0.1 1006373
08:00−8ююз6129176 0.0 1006384
11:00−5ююз7119588 0.6 1006715
14:00−4ююз81189100 0.4 1005899
17:00−4ююз71295100 0.9 1005794
20:00−5сз71285100 1.3 1007575
10 марта, ср
ср1023:00−12з339254 1.3 101024
02:00−15з129538 0.0 101120
05:00−14юв119769 0.1 101120
08:00−13вюв1296100 0.0 101025
11:00−9в1291100 0.1 1009278
14:00−6всв2390100 0.1 1007459
17:00−6всв3594100 0.5 1005409
20:00−9св3696100 0.2 1004170
11 марта, чт
чт1123:00−11св4895100 0.4 1004271
02:00−13ссв6995100 0.7 1003342
05:00−16ссв61095100 1.3 1003340
08:00−18ссв6996100 0.7 1004330
11:00−17с5995100 1.3 1005352
14:00−16с5893100 0.3 1006441
17:00−16ссз5789100 0.6 1008518
20:00−19ссз359799 0.1 1010158
12 марта, пт
пт1223:00−22сз239997 0.1 101320
02:00−25з2210036 0.0 101420
05:00−26юз239746 0.0 101520
08:00−24ююз2310074 0.0 101635
11:00−16юз349286 0.1 1017339
14:00−11юз3590100 0.1 1018490
17:00−9ююз479298 0.1 1018487
20:00−12зюз479399 0.1 1019128